Location: Jackson Park
(37.2862°N, 79.9123°W)
Time: 01:56:55
(UTC+00:00)

Tiros 1 despin weight - Pass Details

Date: 11 May 2026
Orbit: 554 x 591 km, 48.2° (Epoch: 6 June)

Event Time Altitude Azimuth Distance (km) Brightness Sun altitude
Rises 18:40:55 0° 296° (WNW) 2,729 ? 63.2°
Reaches altitude 10° 18:43:19 10° 287° (WNW) 1,834 ? 62.9°
Maximum altitude 18:47:03 32° 223° (SW) 968 ? 62.3°
Drops below altitude 10° 18:50:48 10° 160° (SSE) 1,839 ? 61.7°
Sets 18:53:13 0° 150° (SSE) 2,737 ? 61.3°
